Location: Treviso
(45.6669°N, 12.2430°E)
Time: 00:40:40
(UTC+02:00)

ISS - Pass Details

Date: 24 May 2017
Orbit: 402 x 408 km, 51.6° (Epoch: 30 May)

Event Time Altitude Azimuth Distance (km) Brightness Sun altitude
Rises 01:56:32 0° 290° (WNW) 2,332 0.1 -22.7°
Reaches altitude 10° 01:58:48 10° 303° (WNW) 1,470 -0.8 -22.6°
Maximum altitude 02:01:42 28° 4° (N) 800 -1.7 -22.4°
Drops below altitude 10° 02:04:36 10° 66° (ENE) 1,465 -0.5 -22.3°
Sets 02:06:52 0° 79° (E) 2,323 0.4 -22.2°
